Regional Weather Roundup
Issued by NWS

Home | Current Version | Previous Version | Text Only | Print | Product List | Glossary On
Versions: 1 2 3 4 5 6 7 8 9 10 11 12 13 14 15 16 17 18 19 20 21 22 23 24 25 26 27 28 29 30 31 32 33 34 35 36 37 38 39 40 41 42 43 44 45 46 47 48 49 50
000
ASUS43 KMPX 231301
RWRMN
WEATHER ROUNDUP FOR MINNESOTA
NATIONAL WEATHER SERVICE TWIN CITIES/CHANHASSEN MN
800 AM CDT MON APR 23 2018


NOTE: "FAIR" INDICATES FEW OR NO CLOUDS BELOW 12,000 FEET WITH NO
SIGNIFICANT WEATHER AND/OR OBSTRUCTIONS TO VISIBILITY. N/A MEANS
CURRENT SKY AND/OR WEATHER CONDITIONS ARE NOT AVAILABLE.

MNZ060>063-068>070-231400-
   Twin Cities Metro

CITY           SKY/WX    TMP DP  RH WIND       PRES   REMARKS
TWIN CITIES    FAIR      46  37  71 CALM      30.26R
ST PAUL        FAIR      44  39  82 CALM      30.27S
CRYSTAL        FAIR      43  37  79 CALM      30.25R
BLAINE         SUNNY     45  39  81 CALM      30.25S
LAKEVILLE      FAIR      36  36 100 CALM      30.26R
EDEN PRAIRIE   FAIR      45  36  70 CALM      30.25R
SOUTH ST PAUL  FAIR      42  35  74 CALM      30.26R
LAKE ELMO      FAIR      36  34  93 CALM      30.27S
$$
MNZ001>005-007-008-013>017-022>024-027-028-231400-
   Northwest Minnesota

CITY           SKY/WX    TMP DP  RH WIND       PRES   REMARKS
BEMIDJI        FAIR      46  34  64 SW8       30.18R
HALLOCK        FAIR      39  39 100 CALM      30.18R
ROSEAU         FAIR      45  39  81 SW5       30.15R
WARROAD        FAIR      45  39  81 W8        30.15R
THIEF RVR FALL FAIR      40  37  89 SW7       30.19R
CROOKSTON      FAIR      39  37  93 SW5       30.20R FOG
FOSSTON        FAIR      43  34  70 S9        30.20R
DETROIT LAKES  FAIR      43  34  70 CALM      30.21S
MOORHEAD       PTSUNNY   39  36  87 S7        30.22R
PARK RAPIDS    FAIR      42  37  82 CALM      30.20R
MAHNOMEN       FAIR      41  35  80 SW8       30.21R
$$
MNZ006-009>011-018-025>026-231400-
   North Central Minnesota

CITY           SKY/WX    TMP DP  RH WIND       PRES   REMARKS
BAUDETTE       FAIR      47  38  71 SW6       30.14R
FLAG ISLAND    FAIR      45  36  70 W8        30.12R
INTL FALLS     FAIR      49  36  61 SW6       30.14S
WASKISH        PTSUNNY   45  36  70 SW5       30.16S
BIG FORK       CLOUDY    45  36  70 SW6       30.18S
LONGVILLE      FAIR      43  36  75 SW3       30.21S
GRAND RAPIDS   FAIR      48  36  63 VRB3      30.22S
CRANE LAKE     CLOUDY    45  32  61 S6        30.18S
ORR            CLOUDY    45  30  57 CALM      30.16R
COOK           CLOUDY    46  36  66 SW6       30.19S
WALKER         FAIR      45  33  64 SW10      30.19R
$$
MNZ012-019>021-037-231400-
   Northeast Minnesota

CITY           SKY/WX    TMP DP  RH WIND       PRES   REMARKS
DULUTH         FAIR      50  40  68 W8        30.22S
ELY            FAIR      45  34  65 SW7       30.19S
HIBBING        FAIR      36  31  82 CALM      30.20S
EVELETH        FAIR      39  33  77 CALM      30.22S
DULUTH HARBOR  FAIR      39  32  75 S5        30.24F
TWO HARBORS    FAIR      46  37  71 SW3       30.21S
SILVER BAY     FAIR      41  34  75 CALM      30.20S
GRAND MARAIS     N/A     37  28  70 SW6       30.22S
G MARAIS ARPRT FAIR      43  25  49 CALM      30.20S
$$
MNZ029>031-032-039>041-046>048-054>057-064-231400-
   West Central Minnesota

CITY           SKY/WX    TMP DP  RH WIND       PRES   REMARKS
FERGUS FALLS   FAIR      43  36  75 S7        30.21R
WHEATON        SUNNY     39  36  87 SE6       30.24R
MORRIS         SUNNY     41  37  87 SE7       30.22R
ALEXANDRIA     FAIR      48  36  63 S7        30.23S
ELBOW LAKE     FAIR      39  35  84 SE7       30.22S
WADENA         FAIR      39  34  81 CALM      30.21S
GLENWOOD       FAIR      43  36  75 CALM      30.24R
APPLETON       SUNNY     39  37  93 CALM      30.23R
BENSON         SUNNY     41  37  87 CALM      30.25R
ORTONVILLE     SUNNY     39  36  87 SE3       30.22R
MADISON        SUNNY     41  37  87 SE5       30.22S
WILLMAR        FAIR      37  36  93 CALM      30.26R
$$
MNZ033>034-036-042>043-049>051-058-059-231400-
   Central Minnesota

CITY           SKY/WX    TMP DP  RH WIND       PRES   REMARKS
ST CLOUD       FAIR      39  37  92 CALM      30.24S
SAUK CENTRE    FAIR      37  36  95 CALM      30.24S FOG
PAYNESVILLE    FAIR      35  35 100 CALM      30.24S FOG
AITKIN         FAIR      43  36  75 CALM      30.22R
PINE RIVER     FAIR      34  30  86 CALM      30.25R
BRAINERD       FAIR      41  35  79 CALM      30.23R
STAPLES        FAIR      39  36  87 CALM      30.22S
LONG PRAIRIE   FAIR      34  34 100 S3        30.24S FOG
LITTLE FALLS   FAIR      36  34  93 CALM      30.24S
LITCHFIELD     FAIR      43  43 100 CALM      30.24S FOG
BUFFALO        FAIR      37  34  89 CALM      30.25F
MAPLE LAKE     FAIR      36  36  98 CALM      30.25S
HUTCHINSON     FAIR      40  40 100 CALM      30.25S FOG
$$
MNZ037-044-045-052-053-231400-
   East Central Minnesota

CITY           SKY/WX    TMP DP  RH WIND       PRES   REMARKS
PRINCETON      FAIR      41  37  87 CALM      30.25S
MORA           FAIR      36  32  87 CALM      30.27R
CAMBRIDGE      FAIR      45  36  70 CALM      30.25F
RUSH CITY      FAIR      41  35  78 CALM      30.26S
MOOSE LAKE     FAIR      36  30  80 SW3       30.23R
HINCKLEY       FAIR      37  34  87 CALM      30.25S
CLOQUET        FAIR      45  34  65 SW3       30.22S
MCGREGOR       FAIR      39  36  87 CALM      30.24R
$$
MNZ071>073-080-081-089-090-097-098-231400-
   Southwest Minnesota

CITY           SKY/WX    TMP DP  RH WIND       PRES   REMARKS
MONTEVIDEO     SUNNY     43  43 100 CALM      30.23S
GRANITE FALLS  SUNNY     40  38  90 CALM      30.25S
CANBY          SUNNY     41  36  83 E5        30.23R
MARSHALL       MOSUNNY   41  35  79 CALM      30.23S
REDWOOD FALLS  SUNNY     39  39 100 CALM      30.24R
OLIVIA         SUNNY     39  37  93 CALM      30.23S FOG
PIPESTONE      SUNNY    N/A N/A N/A S5        30.22R
WINDOM         SUNNY     39  25  56 CALM      30.24R
WORTHINGTON    SUNNY     41  37  86 S3        30.24R
JACKSON        SUNNY     41  34  75 SE3       30.24R
TRACY          SUNNY     46  37  73 S6        30.22R
SLAYTON        SUNNY     40  35  82 S3        30.23S
$$
MNZ065>067-074>077-082>085-091>093-231400-
   South Central Minnesota

CITY           SKY/WX    TMP DP  RH WIND       PRES   REMARKS
MANKATO        FAIR      42  34  73 SE8       30.25S
NEW ULM        SUNNY     41  39  93 CALM      30.24S FOG
ST JAMES       SUNNY     37  36  93 CALM      30.25S FOG
FAIRMONT       SUNNY     39  35  86 S3        30.25R
GLENCOE        FAIR      41  41 100 CALM      30.24S FOG
OWATONNA       FAIR      45  36  70 CALM      30.25S
WASECA         FAIR      41  34  75 SE5       30.26S
ALBERT LEA     FAIR      39  30  70 CALM      30.25S
$$
MNZ078>079-086>088-094>096-231400-
   Southeast Minnesota

CITY           SKY/WX    TMP DP  RH WIND       PRES   REMARKS
ROCHESTER      FAIR      41  33  73 S5        30.27R
RED WING       FAIR      43  34  70 SE3       30.27S
STANTON        FAIR      38  35  88 CALM      30.25S
DODGE CENTER   FAIR      43  34  70 S3        30.26S
WINONA         FAIR      39  34  81 CALM      30.27S
AUSTIN         FAIR      41  34  75 SE3       30.25S
PRESTON        FAIR      41  28  58 CALM      30.28R
$$
ABBREVIATIONS USED IN REMARKS
   TC - TEMPERATURES IN CELSIUS
  WCI - WIND CHILL INDEX
   HX - HEAT INDEX
  VSB - VISIBILITY
$$



USA.gov is the U.S. government's official web portal to all federal, state and local government web resources and services.